San Carlos, CA

7:08 PM PST on November 20, 2017 (GMT -0800)
San Carlos

Weather History for KSQL - March, 2013

Change the Weather History Date:

Sunday, March 3, 2013

  Actual Average Record
Temperature  
Mean Temperature 55 °F -  
Max Temperature 62 °F 62 °F 78 °F (1959)
Min Temperature 48 °F 43 °F 30 °F (1951)
Degree Days  
Heating Degree Days 10    
Growing Degree Days 5 (Base 50)    
Moisture  
Dew Point 47 °F    
Average Humidity 80    
Maximum Humidity 87    
Minimum Humidity 52    
Precipitation  
Precipitation 0.00 in - - ()
Sea Level Pressure  
Sea Level Pressure 30.11 in    
Wind  
Wind Speed 4 mph (WNW)    
Max Wind Speed 15 mph    
Max Gust Speed 24 mph    
Visibility 10 miles    
Events      
Averages and records for this station are not official NWS values.
T = Trace of Precipitation, MM = Missing Value Source: NWS Daily Summary

Daily Weather History Graph

Daily Weather History Graph

Search for Another Location

Airport or City:

Trip Planner

Search our weather history database for the weather conditions in past years. The results will help you decide how hot, cold, wet, or windy it might be!

Date:

Astronomy

Mar. 03, 2013 Rise Set
Actual Time 6:37 AM PST 6:05 PM PST
Civil Twilight 6:10 AM PST 6:31 PM PST
Nautical Twilight 5:40 AM PST 7:01 PM PST
Astronomical Twilight 5:10 AM PST 7:31 PM PST
Moon No Moon Rise 10:04 AM PST (3/3)
Length of Visible Light 12h 20m
Length of Day
11h 28m
Waning Gibbous, 62% of the Moon is Illuminated
Mar 3
Waning Gibbous
Mar 4
Last Quarter
Mar 11
New
Mar 19
First Quarter
Mar 27
Full

Hourly Weather History & Observations

Time (PST) Temp. Dew Point Humidity Pressure Visibility Wind Dir Wind Speed Gust Speed Precip Events Conditions
12:10 AM 55.4 °F 50.0 °F 82% 30.12 in 10.0 mi Calm Calm - N/A   Overcast
12:30 AM 55.4 °F 50.0 °F 82% 30.12 in 10.0 mi South 3.5 mph - N/A   Overcast
12:50 AM 55.4 °F 50.0 °F 82% 30.12 in 10.0 mi Calm Calm - N/A   Overcast
1:10 AM 55.4 °F 50.0 °F 82% 30.11 in 10.0 mi Calm Calm - N/A   Overcast
1:30 AM 55.4 °F 50.0 °F 82% 30.11 in 10.0 mi Calm Calm - N/A   Overcast
1:50 AM 55.4 °F 50.0 °F 82% 30.11 in 10.0 mi SE 3.5 mph - N/A   Overcast
2:10 AM 55.4 °F 50.0 °F 82% 30.11 in 10.0 mi Calm Calm - N/A   Overcast
2:30 AM 55.4 °F 50.0 °F 82% 30.11 in 10.0 mi WNW 4.6 mph - N/A   Overcast
2:50 AM 53.6 °F 48.2 °F 82% 30.10 in 10.0 mi NW 4.6 mph - N/A   Overcast
3:10 AM 53.6 °F 48.2 °F 82% 30.08 in 10.0 mi Calm Calm - N/A   Overcast
3:30 AM 53.6 °F 48.2 °F 82% 30.09 in 10.0 mi NNW 8.1 mph - N/A   Overcast
3:50 AM 53.6 °F 48.2 °F 82% 30.09 in 10.0 mi NNW 8.1 mph - N/A   Overcast
4:10 AM 53.6 °F 48.2 °F 82% 30.09 in 10.0 mi NNW 4.6 mph - N/A   Overcast
4:50 AM 53.6 °F 48.2 °F 82% 30.10 in 10.0 mi NW 5.8 mph - N/A   Overcast
5:10 AM 53.6 °F 48.2 °F 82% 30.10 in 10.0 mi West 3.5 mph - N/A   Overcast
5:30 AM 53.6 °F 48.2 °F 82% 30.10 in 10.0 mi Calm Calm - N/A   Overcast
5:50 AM 53.6 °F 48.2 °F 82% 30.09 in 10.0 mi Calm Calm - N/A   Overcast
6:10 AM 53.6 °F 48.2 °F 82% 30.10 in 10.0 mi Calm Calm - N/A   Overcast
6:30 AM 53.6 °F 46.4 °F 77% 30.10 in 10.0 mi NW 4.6 mph - N/A   Overcast
6:47 AM 53.6 °F 46.4 °F 77% 30.10 in 10.0 mi WNW 5.8 mph - N/A   Overcast
7:47 AM 53.6 °F 48.2 °F 82% 30.12 in 10.0 mi Variable 3.5 mph - N/A   Overcast
8:47 AM 55.4 °F 46.4 °F 72% 30.12 in 10.0 mi WSW 6.9 mph - N/A   Mostly Cloudy
9:55 AM 55.4 °F 46.4 °F 72% 30.12 in 10.0 mi WSW 3.5 mph - N/A   Mostly Cloudy
10:52 AM 57.2 °F 48.2 °F 72% 30.11 in 10.0 mi NE 5.8 mph - N/A   Mostly Cloudy
11:48 AM 59.0 °F 50.0 °F 72% 30.11 in 10.0 mi ENE 9.2 mph - N/A   Mostly Cloudy
1:47 PM 62.6 °F 44.6 °F 52% 30.07 in 10.0 mi WSW 9.2 mph - N/A   Scattered Clouds
2:47 PM 62.6 °F 44.6 °F 52% 30.07 in 10.0 mi West 13.8 mph - N/A   Scattered Clouds
4:47 PM 53.6 °F 46.4 °F 77% 30.07 in 10.0 mi West 15.0 mph 24.2 mph N/A   Scattered Clouds
5:47 PM 50.0 °F 44.6 °F 82% 30.08 in 10.0 mi WNW 15.0 mph 19.6 mph N/A   Scattered Clouds
6:47 PM 50.0 °F 44.6 °F 82% 30.09 in 10.0 mi WNW 10.4 mph - N/A   Scattered Clouds
7:47 PM 50.0 °F 44.6 °F 82% 30.10 in 10.0 mi WNW 11.5 mph - N/A   Mostly Cloudy
8:47 PM 48.2 °F 44.6 °F 87% 30.12 in 10.0 mi West 11.5 mph 17.3 mph N/A   Scattered Clouds
9:10 PM 48.2 °F 44.6 °F 87% 30.12 in 10.0 mi West 11.5 mph - N/A   Mostly Cloudy
9:30 PM 48.2 °F 44.6 °F 87% 30.12 in 10.0 mi WNW 12.7 mph - N/A   Overcast
9:50 PM 48.2 °F 44.6 °F 87% 30.12 in 10.0 mi West 13.8 mph - N/A   Scattered Clouds
10:10 PM 48.2 °F 44.6 °F 87% 30.13 in 10.0 mi West 11.5 mph - N/A   Scattered Clouds
10:30 PM 50.0 °F 44.6 °F 82% 30.13 in 10.0 mi West 6.9 mph - N/A   Overcast
10:50 PM 48.2 °F 44.6 °F 87% 30.13 in 10.0 mi West 6.9 mph - N/A   Overcast
11:10 PM 50.0 °F 44.6 °F 82% 30.13 in 10.0 mi West 5.8 mph - N/A   Overcast
11:50 PM 50.0 °F 44.6 °F 82% 30.12 in 10.0 mi WNW 4.6 mph - N/A   Overcast